EW6999 Weather Reports


time (UTC)temp
C
wind
direction
speed
KPH
gust
KPH
rain 1hr
cm
rain 24hr
cm
rain mn
cm
humidity
%
barometer
mb
20260504231829 20 223 0.0 4.8 0.00 0.00 0.00 37 1007.4
20260504230401 21 143 0.0 9.7 0.00 0.00 0.00 35 1007.4
20260504224831 22 113 0.0 4.8 0.00 0.00 0.00 33 1007.3
20260504223328 22 147 1.6 6.4 0.00 0.00 0.00 32 1007.3
20260504221900 22 239 0.0 9.7 0.00 0.00 0.00 33 1007.4
20260504220336 22 329 1.6 6.4 0.00 0.00 0.00 31 1007.4
20260504214827 22 140 1.6 9.7 0.00 0.00 0.00 32 1007.5
20260504213340 22 355 3.2 6.4 0.00 0.00 0.00 32 1007.5
20260504211857 23 97 0.0 4.8 0.00 0.00 0.00 34 1007.6
20260504210327 22 184 0.0 6.4 0.00 0.00 0.00 32 1007.5
20260504204902 22 359 4.8 12.9 0.00 0.00 0.00 32 1007.6
20260504203331 22 226 3.2 17.7 0.00 0.00 0.00 31 1007.6
20260504201824 22 315 1.6 11.3 0.00 0.00 0.00 31 1007.6
20260504200342 22 146 3.2 12.9 0.00 0.00 0.00 31 1007.6
20260504194830 22 78 3.2 8.0 0.00 0.00 0.00 33 1007.8
20260504193347 22 50 0.0 11.3 0.00 0.00 0.00 33 1007.9
20260504191838 22 200 3.2 9.7 0.00 0.00 0.00 33 1008.2
20260504190329 22 257 3.2 12.9 0.00 0.00 0.00 34 1008.5
20260504184825 22 238 1.6 8.0 0.00 0.00 0.00 35 1008.6
20260504183337 22 99 1.6 12.9 0.00 0.00 0.00 35 1008.8
20260504181831 22 221 1.6 12.9 0.00 0.00 0.00 34 1009.0
20260504180323 22 185 3.2 9.7 0.00 0.00 0.00 33 1009.3
20260504174900 22 242 3.2 11.3 0.00 0.00 0.00 33 1009.4
20260504173331 22 242 0.0 11.3 0.00 0.00 0.00 34 1009.6
20260504171842 22 206 3.2 14.5 0.00 0.00 0.00 35 1009.8
20260504170337 22 281 1.6 8.0 0.00 0.00 0.00 34 1010.0
20260504160333 21 112 3.2 12.9 0.00 0.00 0.00 36 1010.7
20260504150326 21 257 1.6 6.4 0.00 0.00 0.00 39 1011.3
20260504140336 20 357 1.6 8.0 0.00 0.00 0.00 41 1011.6
20260504130332 18 198 1.6 6.4 0.00 0.00 0.00 46 1012.2
20260504110341 9 194 0.0 6.4 0.00 0.00 0.00 71 1012.7
20260504100337 7 94 0.0 3.2 0.00 0.00 0.00 72 1012.6
20260504081833 6 232 0.0 0.0 0.00 0.00 0.00 70 1012.2
20260504080325 6 232 0.0 0.0 0.00 0.00 0.00 71 1012.3
20260504070341 6 193 0.0 0.0 0.00 0.00 0.00 67 1012.1
20260504050333 7 157 0.0 0.0 0.00 0.00 0.00 64 1011.8
20260504044824 6 157 0.0 0.0 0.00 0.00 0.00 64 1011.7
20260504043337 6 157 0.0 0.0 0.00 0.00 0.00 64 1011.6
20260504041832 6 157 0.0 0.0 0.00 0.00 0.00 64 1011.4
20260504040325 6 230 0.0 0.0 0.00 0.00 0.00 64 1011.4
20260504034842 6 230 0.0 0.0 0.00 0.00 0.00 63 1011.2
20260504033333 7 230 0.0 0.0 0.00 0.00 0.00 61 1011.2
20260504031827 7 230 0.0 0.0 0.00 0.00 0.00 61 1011.0
20260504030340 7 230 0.0 0.0 0.00 0.00 0.00 60 1011.1
20260504024828 7 210 0.0 0.0 0.00 0.00 0.00 59 1011.0
20260504023325 7 210 0.0 0.0 0.00 0.00 0.00 59 1011.1
20260504021857 7 210 0.0 0.0 0.00 0.00 0.00 58 1011.0
20260504020351 7 210 0.0 0.0 0.00 0.00 0.00 58 1011.0
20260504014843 7 210 0.0 0.0 0.00 0.00 0.00 58 1010.9
20260504013356 7 210 0.0 0.0 0.00 0.00 0.00 58 1010.8
20260504011850 7 210 0.0 0.0 0.00 0.00 0.00 55 1010.7
20260504010341 8 210 0.0 0.0 0.00 0.00 0.00 53 1010.5
20260504004838 9 210 0.0 0.0 0.00 0.00 0.00 50 1010.3
20260504003328 10 210 0.0 0.0 0.00 0.00 0.00 46 1010.1
20260504001824 11 210 0.0 0.0 0.00 0.00 0.00 43 1009.8
20260504000336 12 210 0.0 0.0 0.00 0.00 0.00 39 1009.7
20260503234827 13 210 0.0 3.2 0.00 0.00 0.00 36 1009.5
20260503233341 13 218 1.6 4.8 0.00 0.00 0.00 34 1009.5